owner,sensor,date,latitude,longitude,vertical_datum,sea_water_temperature,qcFlag
BP,ioos:station:wmo:42880:1,2022-07-01T00:03:00Z,0.0000,0.0000,8.1,30.6,11111222
BP,ioos:station:wmo:42880:1,2022-07-01T00:13:00Z,0.0000,0.0000,8.1,30.5,11111222
BP,ioos:station:wmo:42880:1,2022-07-01T00:23:00Z,0.0000,0.0000,8.1,30.5,11111222
BP,ioos:station:wmo:42880:1,2022-07-01T00:33:00Z,0.0000,0.0000,8.1,30.5,11111222
BP,ioos:station:wmo:42880:1,2022-07-01T00:43:00Z,0.0000,0.0000,8.1,30.5,11111222
BP,ioos:station:wmo:42880:1,2022-07-01T00:53:00Z,0.0000,0.0000,8.1,30.5,11111222
BP,ioos:station:wmo:42880:1,2022-07-01T01:03:00Z,0.0000,0.0000,8.1,30.4,11111222
BP,ioos:station:wmo:42880:1,2022-07-01T01:13:00Z,0.0000,0.0000,8.1,30.4,11111222
BP,ioos:station:wmo:42880:1,2022-07-01T01:23:00Z,0.0000,0.0000,8.1,30.5,11111222
BP,ioos:station:wmo:42880:1,2022-07-01T01:33:00Z,0.0000,0.0000,8.1,30.5,11111222
BP,ioos:station:wmo:42880:1,2022-07-01T01:43:00Z,0.0000,0.0000,8.1,30.5,11111222
BP,ioos:station:wmo:42880:1,2022-07-01T01:53:00Z,0.0000,0.0000,8.1,30.5,11111222
BP,ioos:station:wmo:42880:1,2022-07-01T02:03:00Z,0.0000,0.0000,8.1,30.6,11111222
BP,ioos:station:wmo:42880:1,2022-07-01T02:13:00Z,0.0000,0.0000,8.1,30.6,11111222
BP,ioos:station:wmo:42880:1,2022-07-01T02:23:00Z,0.0000,0.0000,8.1,30.6,11111222
BP,ioos:station:wmo:42880:1,2022-07-01T02:33:00Z,0.0000,0.0000,8.1,30.5,11111222
BP,ioos:station:wmo:42880:1,2022-07-01T02:43:00Z,0.0000,0.0000,8.1,30.4,11111222
BP,ioos:station:wmo:42880:1,2022-07-01T02:53:00Z,0.0000,0.0000,8.1,30.4,11111222
BP,ioos:station:wmo:42880:1,2022-07-01T03:03:00Z,0.0000,0.0000,8.1,30.5,11111222
BP,ioos:station:wmo:42880:1,2022-07-01T03:13:00Z,0.0000,0.0000,8.1,30.3,11111222
BP,ioos:station:wmo:42880:1,2022-07-01T03:23:00Z,0.0000,0.0000,8.1,30.3,11111222
BP,ioos:station:wmo:42880:1,2022-07-01T03:33:00Z,0.0000,0.0000,8.1,30.3,11111222
BP,ioos:station:wmo:42880:1,2022-07-01T03:43:00Z,0.0000,0.0000,8.1,30.0,11111222
BP,ioos:station:wmo:42880:1,2022-07-01T03:53:00Z,0.0000,0.0000,8.1,30.4,11111222
BP,ioos:station:wmo:42880:1,2022-07-01T04:03:00Z,0.0000,0.0000,8.1,30.4,11111222
BP,ioos:station:wmo:42880:1,2022-07-01T04:13:00Z,0.0000,0.0000,8.1,30.4,11111222
BP,ioos:station:wmo:42880:1,2022-07-01T04:23:00Z,0.0000,0.0000,8.1,30.4,11111222
BP,ioos:station:wmo:42880:1,2022-07-01T04:33:00Z,0.0000,0.0000,8.1,30.4,11111222
BP,ioos:station:wmo:42880:1,2022-07-01T04:43:00Z,0.0000,0.0000,8.2,30.4,11111222
BP,ioos:station:wmo:42880:1,2022-07-01T04:53:00Z,0.0000,0.0000,8.1,30.4,11111222
BP,ioos:station:wmo:42880:1,2022-07-01T05:03:00Z,0.0000,0.0000,8.2,30.4,11111222
BP,ioos:station:wmo:42880:1,2022-07-01T05:13:00Z,0.0000,0.0000,8.2,30.4,11111222
BP,ioos:station:wmo:42880:1,2022-07-01T05:23:00Z,0.0000,0.0000,8.1,30.3,11111222
BP,ioos:station:wmo:42880:1,2022-07-01T05:33:00Z,0.0000,0.0000,8.1,30.3,11111222
BP,ioos:station:wmo:42880:1,2022-07-01T05:44:00Z,0.0000,0.0000,8.1,30.3,11111222
BP,ioos:station:wmo:42880:1,2022-07-01T05:54:00Z,0.0000,0.0000,8.1,30.3,11111222
BP,ioos:station:wmo:42880:1,2022-07-01T06:04:00Z,0.0000,0.0000,8.1,30.2,11111222
BP,ioos:station:wmo:42880:1,2022-07-01T06:14:00Z,0.0000,0.0000,8.1,30.1,11111222
BP,ioos:station:wmo:42880:1,2022-07-01T06:24:00Z,0.0000,0.0000,8.1,30.1,11111222
BP,ioos:station:wmo:42880:1,2022-07-01T06:34:00Z,0.0000,0.0000,8.1,30.1,11111222
BP,ioos:station:wmo:42880:1,2022-07-01T06:44:00Z,0.0000,0.0000,8.1,30.0,11111222
BP,ioos:station:wmo:42880:1,2022-07-01T06:54:00Z,0.0000,0.0000,8.1,30.0,11111222
BP,ioos:station:wmo:42880:1,2022-07-01T07:04:00Z,0.0000,0.0000,8.1,30.0,11111222
BP,ioos:station:wmo:42880:1,2022-07-01T07:14:00Z,0.0000,0.0000,8.1,30.1,11111222
BP,ioos:station:wmo:42880:1,2022-07-01T07:24:00Z,0.0000,0.0000,8.1,30.1,11111222
BP,ioos:station:wmo:42880:1,2022-07-01T07:34:00Z,0.0000,0.0000,8.1,30.0,11111222
BP,ioos:station:wmo:42880:1,2022-07-01T07:44:00Z,0.0000,0.0000,8.1,30.1,11111222
BP,ioos:station:wmo:42880:1,2022-07-01T07:54:00Z,0.0000,0.0000,8.1,29.9,11111222
BP,ioos:station:wmo:42880:1,2022-07-01T08:04:00Z,0.0000,0.0000,8.1,29.9,11111222
BP,ioos:station:wmo:42880:1,2022-07-01T08:14:00Z,0.0000,0.0000,8.1,29.9,11111222
BP,ioos:station:wmo:42880:1,2022-07-01T08:24:00Z,0.0000,0.0000,8.1,29.8,11111222
BP,ioos:station:wmo:42880:1,2022-07-01T08:34:00Z,0.0000,0.0000,8.1,30.0,11111222
BP,ioos:station:wmo:42880:1,2022-07-01T08:44:00Z,0.0000,0.0000,8.1,29.9,11111222
BP,ioos:station:wmo:42880:1,2022-07-01T08:54:00Z,0.0000,0.0000,8.1,29.9,11111222
BP,ioos:station:wmo:42880:1,2022-07-01T09:04:00Z,0.0000,0.0000,8.1,29.9,11111222
BP,ioos:station:wmo:42880:1,2022-07-01T09:14:00Z,0.0000,0.0000,8.1,29.9,11111222
BP,ioos:station:wmo:42880:1,2022-07-01T09:24:00Z,0.0000,0.0000,8.1,29.8,11111222
BP,ioos:station:wmo:42880:1,2022-07-01T09:34:00Z,0.0000,0.0000,8.1,29.9,11111222
BP,ioos:station:wmo:42880:1,2022-07-01T09:44:00Z,0.0000,0.0000,8.1,29.9,11111222
BP,ioos:station:wmo:42880:1,2022-07-01T09:54:00Z,0.0000,0.0000,8.1,30.0,11111222
BP,ioos:station:wmo:42880:1,2022-07-01T10:04:00Z,0.0000,0.0000,8.2,29.9,11111222
BP,ioos:station:wmo:42880:1,2022-07-01T10:14:00Z,0.0000,0.0000,8.2,29.8,11111222
BP,ioos:station:wmo:42880:1,2022-07-01T10:24:00Z,0.0000,0.0000,8.2,29.7,11111222
BP,ioos:station:wmo:42880:1,2022-07-01T10:34:00Z,0.0000,0.0000,8.2,29.9,11111222
BP,ioos:station:wmo:42880:1,2022-07-01T10:44:00Z,0.0000,0.0000,8.2,29.8,11111222
BP,ioos:station:wmo:42880:1,2022-07-01T10:54:00Z,0.0000,0.0000,8.2,29.7,11111222
BP,ioos:station:wmo:42880:1,2022-07-01T11:04:00Z,0.0000,0.0000,8.2,29.9,11111222
BP,ioos:station:wmo:42880:1,2022-07-01T11:14:00Z,0.0000,0.0000,8.2,29.8,11111222
BP,ioos:station:wmo:42880:1,2022-07-01T11:24:00Z,0.0000,0.0000,8.2,29.9,11111222
BP,ioos:station:wmo:42880:1,2022-07-01T11:34:00Z,0.0000,0.0000,8.2,30.0,11111222
BP,ioos:station:wmo:42880:1,2022-07-01T11:44:00Z,0.0000,0.0000,8.2,30.0,11111222
BP,ioos:station:wmo:42880:1,2022-07-01T11:54:00Z,0.0000,0.0000,8.2,30.0,11111222
BP,ioos:station:wmo:42880:1,2022-07-01T12:04:00Z,0.0000,0.0000,8.2,30.0,11111222
BP,ioos:station:wmo:42880:1,2022-07-01T12:14:00Z,0.0000,0.0000,8.2,30.1,11111222
BP,ioos:station:wmo:42880:1,2022-07-01T12:24:00Z,0.0000,0.0000,8.2,30.0,11111222
BP,ioos:station:wmo:42880:1,2022-07-01T12:34:00Z,0.0000,0.0000,8.2,29.9,11111222
BP,ioos:station:wmo:42880:1,2022-07-01T12:44:00Z,0.0000,0.0000,8.2,29.9,11111222
BP,ioos:station:wmo:42880:1,2022-07-01T12:54:00Z,0.0000,0.0000,8.2,29.9,11111222
BP,ioos:station:wmo:42880:1,2022-07-01T13:04:00Z,0.0000,0.0000,8.2,29.8,11111222
BP,ioos:station:wmo:42880:1,2022-07-01T13:14:00Z,0.0000,0.0000,8.2,29.7,11111222
BP,ioos:station:wmo:42880:1,2022-07-01T13:24:00Z,0.0000,0.0000,8.2,29.8,11111222
BP,ioos:station:wmo:42880:1,2022-07-01T13:34:00Z,0.0000,0.0000,8.2,29.9,11111222
BP,ioos:station:wmo:42880:1,2022-07-01T13:44:00Z,0.0000,0.0000,8.3,29.8,11111222
BP,ioos:station:wmo:42880:1,2022-07-01T13:54:00Z,0.0000,0.0000,8.3,29.8,11111222
BP,ioos:station:wmo:42880:1,2022-07-01T14:04:00Z,0.0000,0.0000,8.3,29.8,11111222
BP,ioos:station:wmo:42880:1,2022-07-01T14:14:00Z,0.0000,0.0000,8.3,29.8,11111222
BP,ioos:station:wmo:42880:1,2022-07-01T14:24:00Z,0.0000,0.0000,8.3,29.8,11111222
BP,ioos:station:wmo:42880:1,2022-07-01T14:34:00Z,0.0000,0.0000,8.3,29.8,11111222
BP,ioos:station:wmo:42880:1,2022-07-01T14:44:00Z,0.0000,0.0000,8.3,29.7,11111222
BP,ioos:station:wmo:42880:1,2022-07-01T14:54:00Z,0.0000,0.0000,8.3,29.7,11111222
BP,ioos:station:wmo:42880:1,2022-07-01T15:04:00Z,0.0000,0.0000,8.3,29.7,11111222
BP,ioos:station:wmo:42880:1,2022-07-01T15:14:00Z,0.0000,0.0000,8.3,29.7,11111222
BP,ioos:station:wmo:42880:1,2022-07-01T15:24:00Z,0.0000,0.0000,8.3,29.9,11111222
BP,ioos:station:wmo:42880:1,2022-07-01T15:34:00Z,0.0000,0.0000,8.3,30.0,11111222
BP,ioos:station:wmo:42880:1,2022-07-01T15:44:00Z,0.0000,0.0000,8.3,30.0,11111222
BP,ioos:station:wmo:42880:1,2022-07-01T15:54:00Z,0.0000,0.0000,8.3,30.0,11111222
BP,ioos:station:wmo:42880:1,2022-07-01T16:05:00Z,0.0000,0.0000,8.3,30.1,11111222
BP,ioos:station:wmo:42880:1,2022-07-01T16:15:00Z,0.0000,0.0000,8.3,30.2,11111222
BP,ioos:station:wmo:42880:1,2022-07-01T16:25:00Z,0.0000,0.0000,8.3,30.1,11111222
BP,ioos:station:wmo:42880:1,2022-07-01T16:35:00Z,0.0000,0.0000,8.3,30.2,11111222
BP,ioos:station:wmo:42880:1,2022-07-01T16:45:00Z,0.0000,0.0000,8.3,30.2,11111222
BP,ioos:station:wmo:42880:1,2022-07-01T16:55:00Z,0.0000,0.0000,8.3,30.1,11111222
BP,ioos:station:wmo:42880:1,2022-07-01T17:05:00Z,0.0000,0.0000,8.3,30.0,11111222
BP,ioos:station:wmo:42880:1,2022-07-01T17:15:00Z,0.0000,0.0000,8.3,30.1,11111222
BP,ioos:station:wmo:42880:1,2022-07-01T17:25:00Z,0.0000,0.0000,8.2,30.2,11111222
BP,ioos:station:wmo:42880:1,2022-07-01T17:35:00Z,0.0000,0.0000,8.2,30.1,11111222
BP,ioos:station:wmo:42880:1,2022-07-01T18:48:00Z,0.0000,0.0000,8.2,30.0,11111222
BP,ioos:station:wmo:42880:1,2022-07-01T19:02:00Z,0.0000,0.0000,8.2,30.0,11111222
BP,ioos:station:wmo:42880:1,2022-07-01T19:12:00Z,0.0000,0.0000,8.2,30.0,11111222
BP,ioos:station:wmo:42880:1,2022-07-01T19:22:00Z,0.0000,0.0000,8.2,30.0,11111222
BP,ioos:station:wmo:42880:1,2022-07-01T19:32:00Z,0.0000,0.0000,8.2,30.1,11111222
BP,ioos:station:wmo:42880:1,2022-07-01T19:42:00Z,0.0000,0.0000,8.2,29.8,11111222
BP,ioos:station:wmo:42880:1,2022-07-01T19:52:00Z,0.0000,0.0000,8.3,30.1,11111222
BP,ioos:station:wmo:42880:1,2022-07-01T20:02:00Z,0.0000,0.0000,8.3,30.2,11111222
BP,ioos:station:wmo:42880:1,2022-07-01T20:12:00Z,0.0000,0.0000,8.3,30.2,11111222
BP,ioos:station:wmo:42880:1,2022-07-01T20:22:00Z,0.0000,0.0000,8.3,30.1,11111222
BP,ioos:station:wmo:42880:1,2022-07-01T20:32:00Z,0.0000,0.0000,8.3,30.1,11111222
BP,ioos:station:wmo:42880:1,2022-07-01T20:42:00Z,0.0000,0.0000,8.3,30.1,11111222
BP,ioos:station:wmo:42880:1,2022-07-01T20:52:00Z,0.0000,0.0000,8.3,30.2,11111222
BP,ioos:station:wmo:42880:1,2022-07-01T21:02:00Z,0.0000,0.0000,8.3,30.2,11111222
BP,ioos:station:wmo:42880:1,2022-07-01T21:12:00Z,0.0000,0.0000,8.4,30.3,11111222
BP,ioos:station:wmo:42880:1,2022-07-01T21:23:00Z,0.0000,0.0000,8.4,30.2,11111222
BP,ioos:station:wmo:42880:1,2022-07-01T21:33:00Z,0.0000,0.0000,8.4,30.2,11111222
BP,ioos:station:wmo:42880:1,2022-07-01T21:43:00Z,0.0000,0.0000,8.4,30.3,11111222
BP,ioos:station:wmo:42880:1,2022-07-01T21:53:00Z,0.0000,0.0000,8.3,30.4,11111222
BP,ioos:station:wmo:42880:1,2022-07-01T22:03:00Z,0.0000,0.0000,8.4,30.4,11111222
BP,ioos:station:wmo:42880:1,2022-07-01T22:13:00Z,0.0000,0.0000,8.4,30.6,11111222
BP,ioos:station:wmo:42880:1,2022-07-01T22:23:00Z,0.0000,0.0000,8.4,30.6,11111222
BP,ioos:station:wmo:42880:1,2022-07-01T22:33:00Z,0.0000,0.0000,8.3,30.5,11111222
BP,ioos:station:wmo:42880:1,2022-07-01T22:43:00Z,0.0000,0.0000,8.4,30.6,11111222
BP,ioos:station:wmo:42880:1,2022-07-01T22:53:00Z,0.0000,0.0000,8.3,30.6,11111222
BP,ioos:station:wmo:42880:1,2022-07-01T23:03:00Z,0.0000,0.0000,8.3,30.2,11111222
BP,ioos:station:wmo:42880:1,2022-07-01T23:13:00Z,0.0000,0.0000,8.3,30.3,11111222
BP,ioos:station:wmo:42880:1,2022-07-01T23:23:00Z,0.0000,0.0000,8.3,30.1,11111222
BP,ioos:station:wmo:42880:1,2022-07-01T23:33:00Z,0.0000,0.0000,8.3,30.0,11111222
BP,ioos:station:wmo:42880:1,2022-07-01T23:43:00Z,0.0000,0.0000,8.3,30.2,11111222
BP,ioos:station:wmo:42880:1,2022-07-01T23:53:00Z,0.0000,0.0000,8.3,30.1,11111222
BP,ioos:station:wmo:42880:1,2022-07-02T00:03:00Z,0.0000,0.0000,8.3,30.2,11111222
BP,ioos:station:wmo:42880:1,2022-07-02T00:13:00Z,0.0000,0.0000,8.3,30.2,11111222
BP,ioos:station:wmo:42880:1,2022-07-02T00:23:00Z,0.0000,0.0000,8.3,30.3,11111222
BP,ioos:station:wmo:42880:1,2022-07-02T00:33:00Z,0.0000,0.0000,8.3,30.3,11111222
BP,ioos:station:wmo:42880:1,2022-07-02T00:43:00Z,0.0000,0.0000,8.3,30.2,11111222
BP,ioos:station:wmo:42880:1,2022-07-02T00:53:00Z,0.0000,0.0000,8.3,30.2,11111222
BP,ioos:station:wmo:42880:1,2022-07-02T01:03:00Z,0.0000,0.0000,8.3,30.2,11111222
BP,ioos:station:wmo:42880:1,2022-07-02T01:13:00Z,0.0000,0.0000,8.3,30.2,11111222
BP,ioos:station:wmo:42880:1,2022-07-02T01:23:00Z,0.0000,0.0000,8.4,30.3,11111222
BP,ioos:station:wmo:42880:1,2022-07-02T01:33:00Z,0.0000,0.0000,8.4,30.3,11111222
BP,ioos:station:wmo:42880:1,2022-07-02T01:43:00Z,0.0000,0.0000,8.4,30.3,11111222
BP,ioos:station:wmo:42880:1,2022-07-02T01:53:00Z,0.0000,0.0000,8.4,30.3,11111222
BP,ioos:station:wmo:42880:1,2022-07-02T02:03:00Z,0.0000,0.0000,8.4,30.3,11111222
BP,ioos:station:wmo:42880:1,2022-07-02T02:13:00Z,0.0000,0.0000,8.4,30.3,11111222
BP,ioos:station:wmo:42880:1,2022-07-02T02:23:00Z,0.0000,0.0000,8.4,30.3,11111222
BP,ioos:station:wmo:42880:1,2022-07-02T02:33:00Z,0.0000,0.0000,8.4,30.3,11111222
BP,ioos:station:wmo:42880:1,2022-07-02T02:43:00Z,0.0000,0.0000,8.4,30.2,11111222
BP,ioos:station:wmo:42880:1,2022-07-02T02:53:00Z,0.0000,0.0000,8.4,30.2,11111222
BP,ioos:station:wmo:42880:1,2022-07-02T03:03:00Z,0.0000,0.0000,8.3,30.2,11111222
BP,ioos:station:wmo:42880:1,2022-07-02T03:13:00Z,0.0000,0.0000,8.3,30.2,11111222
BP,ioos:station:wmo:42880:1,2022-07-02T03:23:00Z,0.0000,0.0000,8.3,30.2,11111222
BP,ioos:station:wmo:42880:1,2022-07-02T03:33:00Z,0.0000,0.0000,8.3,30.1,11111222
BP,ioos:station:wmo:42880:1,2022-07-02T03:44:00Z,0.0000,0.0000,8.3,30.1,11111222
BP,ioos:station:wmo:42880:1,2022-07-02T03:54:00Z,0.0000,0.0000,8.3,30.2,11111222
BP,ioos:station:wmo:42880:1,2022-07-02T04:04:00Z,0.0000,0.0000,8.3,30.2,11111222
BP,ioos:station:wmo:42880:1,2022-07-02T04:14:00Z,0.0000,0.0000,8.3,30.3,11111222
BP,ioos:station:wmo:42880:1,2022-07-02T04:24:00Z,0.0000,0.0000,8.3,30.3,11111222
BP,ioos:station:wmo:42880:1,2022-07-02T04:34:00Z,0.0000,0.0000,8.3,30.3,11111222
BP,ioos:station:wmo:42880:1,2022-07-02T04:44:00Z,0.0000,0.0000,8.3,30.2,11111222
BP,ioos:station:wmo:42880:1,2022-07-02T04:54:00Z,0.0000,0.0000,8.3,30.2,11111222
BP,ioos:station:wmo:42880:1,2022-07-02T05:04:00Z,0.0000,0.0000,8.3,30.2,11111222
BP,ioos:station:wmo:42880:1,2022-07-02T05:14:00Z,0.0000,0.0000,8.3,30.3,11111222
BP,ioos:station:wmo:42880:1,2022-07-02T05:24:00Z,0.0000,0.0000,8.3,30.3,11111222
BP,ioos:station:wmo:42880:1,2022-07-02T05:34:00Z,0.0000,0.0000,8.3,30.3,11111222
BP,ioos:station:wmo:42880:1,2022-07-02T05:44:00Z,0.0000,0.0000,8.3,30.2,11111222
BP,ioos:station:wmo:42880:1,2022-07-02T05:54:00Z,0.0000,0.0000,8.3,30.3,11111222
BP,ioos:station:wmo:42880:1,2022-07-02T06:04:00Z,0.0000,0.0000,8.3,30.2,11111222
BP,ioos:station:wmo:42880:1,2022-07-02T06:14:00Z,0.0000,0.0000,8.3,30.2,11111222
BP,ioos:station:wmo:42880:1,2022-07-02T06:24:00Z,0.0000,0.0000,8.3,30.2,11111222
BP,ioos:station:wmo:42880:1,2022-07-02T06:34:00Z,0.0000,0.0000,8.3,30.2,11111222
BP,ioos:station:wmo:42880:1,2022-07-02T06:44:00Z,0.0000,0.0000,8.3,30.2,11111222
BP,ioos:station:wmo:42880:1,2022-07-02T06:54:00Z,0.0000,0.0000,8.3,30.2,11111222
BP,ioos:station:wmo:42880:1,2022-07-02T07:04:00Z,0.0000,0.0000,8.3,30.2,11111222
BP,ioos:station:wmo:42880:1,2022-07-02T07:14:00Z,0.0000,0.0000,8.3,30.3,11111222
BP,ioos:station:wmo:42880:1,2022-07-02T07:24:00Z,0.0000,0.0000,8.3,30.2,11111222
BP,ioos:station:wmo:42880:1,2022-07-02T07:34:00Z,0.0000,0.0000,8.3,30.3,11111222
BP,ioos:station:wmo:42880:1,2022-07-02T07:44:00Z,0.0000,0.0000,8.3,30.3,11111222
BP,ioos:station:wmo:42880:1,2022-07-02T07:54:00Z,0.0000,0.0000,8.3,30.3,11111222
BP,ioos:station:wmo:42880:1,2022-07-02T08:04:00Z,0.0000,0.0000,8.3,30.2,11111222
BP,ioos:station:wmo:42880:1,2022-07-02T08:14:00Z,0.0000,0.0000,8.3,30.3,11111222
BP,ioos:station:wmo:42880:1,2022-07-02T08:24:00Z,0.0000,0.0000,8.3,30.3,11111222
BP,ioos:station:wmo:42880:1,2022-07-02T08:34:00Z,0.0000,0.0000,8.3,30.3,11111222
BP,ioos:station:wmo:42880:1,2022-07-02T08:44:00Z,0.0000,0.0000,8.3,30.3,11111222
BP,ioos:station:wmo:42880:1,2022-07-02T08:54:00Z,0.0000,0.0000,8.3,30.3,11111222
BP,ioos:station:wmo:42880:1,2022-07-02T09:04:00Z,0.0000,0.0000,8.3,30.3,11111222
BP,ioos:station:wmo:42880:1,2022-07-02T09:14:00Z,0.0000,0.0000,8.3,30.3,11111222
BP,ioos:station:wmo:42880:1,2022-07-02T09:24:00Z,0.0000,0.0000,8.3,30.3,11111222
BP,ioos:station:wmo:42880:1,2022-07-02T09:34:00Z,0.0000,0.0000,8.3,30.3,11111222
BP,ioos:station:wmo:42880:1,2022-07-02T09:44:00Z,0.0000,0.0000,8.3,30.3,11111222
BP,ioos:station:wmo:42880:1,2022-07-02T09:54:00Z,0.0000,0.0000,8.3,30.3,11111222
BP,ioos:station:wmo:42880:1,2022-07-02T10:04:00Z,0.0000,0.0000,8.3,30.3,11111222
BP,ioos:station:wmo:42880:1,2022-07-02T10:14:00Z,0.0000,0.0000,8.3,30.3,11111222
BP,ioos:station:wmo:42880:1,2022-07-02T10:24:00Z,0.0000,0.0000,8.3,30.2,11111222
BP,ioos:station:wmo:42880:1,2022-07-02T10:34:00Z,0.0000,0.0000,8.3,30.2,11111222
BP,ioos:station:wmo:42880:1,2022-07-02T10:45:00Z,0.0000,0.0000,8.3,30.1,11111222
BP,ioos:station:wmo:42880:1,2022-07-02T10:55:00Z,0.0000,0.0000,8.3,30.0,11111222
BP,ioos:station:wmo:42880:1,2022-07-02T11:05:00Z,0.0000,0.0000,8.3,30.1,11111222
BP,ioos:station:wmo:42880:1,2022-07-02T11:15:00Z,0.0000,0.0000,8.3,29.9,11111222
BP,ioos:station:wmo:42880:1,2022-07-02T11:25:00Z,0.0000,0.0000,8.3,29.7,11111222
BP,ioos:station:wmo:42880:1,2022-07-02T11:35:00Z,0.0000,0.0000,8.3,29.9,11111222
BP,ioos:station:wmo:42880:1,2022-07-02T11:45:00Z,0.0000,0.0000,8.3,29.9,11111222
BP,ioos:station:wmo:42880:1,2022-07-02T11:55:00Z,0.0000,0.0000,8.3,29.9,11111222
BP,ioos:station:wmo:42880:1,2022-07-02T12:05:00Z,0.0000,0.0000,8.3,29.9,11111222
BP,ioos:station:wmo:42880:1,2022-07-02T12:15:00Z,0.0000,0.0000,8.3,29.6,11111222
BP,ioos:station:wmo:42880:1,2022-07-02T12:25:00Z,0.0000,0.0000,8.3,29.8,11111222
BP,ioos:station:wmo:42880:1,2022-07-02T12:35:00Z,0.0000,0.0000,8.4,30.1,11111222
BP,ioos:station:wmo:42880:1,2022-07-02T12:45:00Z,0.0000,0.0000,8.4,30.1,11111222
BP,ioos:station:wmo:42880:1,2022-07-02T12:55:00Z,0.0000,0.0000,8.4,30.2,11111222
BP,ioos:station:wmo:42880:1,2022-07-02T13:05:00Z,0.0000,0.0000,8.4,30.2,11111222
BP,ioos:station:wmo:42880:1,2022-07-02T13:15:00Z,0.0000,0.0000,8.4,30.2,11111222
BP,ioos:station:wmo:42880:1,2022-07-02T13:25:00Z,0.0000,0.0000,8.4,30.2,11111222
BP,ioos:station:wmo:42880:1,2022-07-02T13:35:00Z,0.0000,0.0000,8.4,30.1,11111222
BP,ioos:station:wmo:42880:1,2022-07-02T13:45:00Z,0.0000,0.0000,8.4,30.2,11111222
BP,ioos:station:wmo:42880:1,2022-07-02T13:55:00Z,0.0000,0.0000,8.4,30.2,11111222
BP,ioos:station:wmo:42880:1,2022-07-02T14:05:00Z,0.0000,0.0000,8.3,30.2,11111222
BP,ioos:station:wmo:42880:1,2022-07-02T14:15:00Z,0.0000,0.0000,8.3,30.2,11111222
BP,ioos:station:wmo:42880:1,2022-07-02T14:25:00Z,0.0000,0.0000,8.3,30.2,11111222
BP,ioos:station:wmo:42880:1,2022-07-02T14:35:00Z,0.0000,0.0000,8.3,30.2,11111222
BP,ioos:station:wmo:42880:1,2022-07-02T14:45:00Z,0.0000,0.0000,8.3,30.2,11111222
BP,ioos:station:wmo:42880:1,2022-07-02T14:55:00Z,0.0000,0.0000,8.3,30.2,11111222
BP,ioos:station:wmo:42880:1,2022-07-02T15:05:00Z,0.0000,0.0000,8.3,30.2,11111222
BP,ioos:station:wmo:42880:1,2022-07-02T15:15:00Z,0.0000,0.0000,8.3,30.2,11111222
BP,ioos:station:wmo:42880:1,2022-07-02T15:25:00Z,0.0000,0.0000,8.2,30.3,11111222
BP,ioos:station:wmo:42880:1,2022-07-02T15:35:00Z,0.0000,0.0000,8.3,30.3,11111222
BP,ioos:station:wmo:42880:1,2022-07-02T15:45:00Z,0.0000,0.0000,8.2,30.3,11111222
BP,ioos:station:wmo:42880:1,2022-07-02T15:55:00Z,0.0000,0.0000,8.3,30.3,11111222
BP,ioos:station:wmo:42880:1,2022-07-02T16:05:00Z,0.0000,0.0000,8.2,30.3,11111222
BP,ioos:station:wmo:42880:1,2022-07-02T16:15:00Z,0.0000,0.0000,8.3,30.2,11111222
BP,ioos:station:wmo:42880:1,2022-07-02T16:25:00Z,0.0000,0.0000,8.3,30.2,11111222
BP,ioos:station:wmo:42880:1,2022-07-02T16:35:00Z,0.0000,0.0000,8.3,30.2,11111222
BP,ioos:station:wmo:42880:1,2022-07-02T16:45:00Z,0.0000,0.0000,8.3,30.2,11111222
BP,ioos:station:wmo:42880:1,2022-07-02T16:55:00Z,0.0000,0.0000,8.3,30.2,11111222
BP,ioos:station:wmo:42880:1,2022-07-02T17:05:00Z,0.0000,0.0000,8.3,30.2,11111222
BP,ioos:station:wmo:42880:1,2022-07-02T17:15:00Z,0.0000,0.0000,8.2,30.1,11111222
BP,ioos:station:wmo:42880:1,2022-07-02T17:25:00Z,0.0000,0.0000,8.3,30.2,11111222
BP,ioos:station:wmo:42880:1,2022-07-02T17:35:00Z,0.0000,0.0000,8.3,30.3,11111222
BP,ioos:station:wmo:42880:1,2022-07-02T17:45:00Z,0.0000,0.0000,8.3,30.3,11111222
BP,ioos:station:wmo:42880:1,2022-07-02T17:55:00Z,0.0000,0.0000,8.2,30.3,11111222
BP,ioos:station:wmo:42880:1,2022-07-02T18:05:00Z,0.0000,0.0000,8.3,30.5,11111222
BP,ioos:station:wmo:42880:1,2022-07-02T18:15:00Z,0.0000,0.0000,8.2,30.5,11111222
BP,ioos:station:wmo:42880:1,2022-07-02T18:25:00Z,0.0000,0.0000,8.2,30.3,11111222
BP,ioos:station:wmo:42880:1,2022-07-02T18:35:00Z,0.0000,0.0000,8.2,30.3,11111222
BP,ioos:station:wmo:42880:1,2022-07-02T18:45:00Z,0.0000,0.0000,8.2,30.2,11111222
BP,ioos:station:wmo:42880:1,2022-07-02T18:55:00Z,0.0000,0.0000,8.2,30.3,11111222
BP,ioos:station:wmo:42880:1,2022-07-02T19:05:00Z,0.0000,0.0000,8.2,30.4,11111222
BP,ioos:station:wmo:42880:1,2022-07-02T19:15:00Z,0.0000,0.0000,8.2,30.2,11111222
BP,ioos:station:wmo:42880:1,2022-07-02T19:25:00Z,0.0000,0.0000,8.2,30.2,11111222
BP,ioos:station:wmo:42880:1,2022-07-02T19:35:00Z,0.0000,0.0000,8.2,30.2,11111222
BP,ioos:station:wmo:42880:1,2022-07-02T19:45:00Z,0.0000,0.0000,8.2,30.4,11111222
BP,ioos:station:wmo:42880:1,2022-07-02T19:55:00Z,0.0000,0.0000,8.2,30.6,11111222
BP,ioos:station:wmo:42880:1,2022-07-02T20:05:00Z,0.0000,0.0000,8.2,30.7,11111222
BP,ioos:station:wmo:42880:1,2022-07-02T20:15:00Z,0.0000,0.0000,8.2,30.6,11111222
BP,ioos:station:wmo:42880:1,2022-07-02T20:25:00Z,0.0000,0.0000,8.2,30.5,11111222
BP,ioos:station:wmo:42880:1,2022-07-02T20:35:00Z,0.0000,0.0000,8.2,30.5,11111222
BP,ioos:station:wmo:42880:1,2022-07-02T20:45:00Z,0.0000,0.0000,8.3,30.6,11111222
BP,ioos:station:wmo:42880:1,2022-07-02T20:55:00Z,0.0000,0.0000,8.2,30.5,11111222
BP,ioos:station:wmo:42880:1,2022-07-02T21:05:00Z,0.0000,0.0000,8.2,30.5,11111222
BP,ioos:station:wmo:42880:1,2022-07-02T21:15:00Z,0.0000,0.0000,8.2,30.6,11111222
BP,ioos:station:wmo:42880:1,2022-07-02T21:26:00Z,0.0000,0.0000,8.2,30.4,11111222
BP,ioos:station:wmo:42880:1,2022-07-02T21:36:00Z,0.0000,0.0000,8.2,30.1,11111222
BP,ioos:station:wmo:42880:1,2022-07-02T21:46:00Z,0.0000,0.0000,8.3,30.0,11111222
BP,ioos:station:wmo:42880:1,2022-07-02T21:56:00Z,0.0000,0.0000,8.3,30.0,11111222
BP,ioos:station:wmo:42880:1,2022-07-02T22:06:00Z,0.0000,0.0000,8.2,30.0,11111222
BP,ioos:station:wmo:42880:1,2022-07-02T22:16:00Z,0.0000,0.0000,8.2,29.9,11111222
BP,ioos:station:wmo:42880:1,2022-07-02T22:26:00Z,0.0000,0.0000,8.2,29.8,11111222
BP,ioos:station:wmo:42880:1,2022-07-02T22:36:00Z,0.0000,0.0000,8.2,29.8,11111222
BP,ioos:station:wmo:42880:1,2022-07-02T22:46:00Z,0.0000,0.0000,8.2,29.8,11111222
BP,ioos:station:wmo:42880:1,2022-07-02T22:56:00Z,0.0000,0.0000,8.2,29.8,11111222
BP,ioos:station:wmo:42880:1,2022-07-02T23:06:00Z,0.0000,0.0000,8.2,29.9,11111222
BP,ioos:station:wmo:42880:1,2022-07-02T23:16:00Z,0.0000,0.0000,8.2,29.8,11111222
BP,ioos:station:wmo:42880:1,2022-07-02T23:26:00Z,0.0000,0.0000,8.2,29.6,11111222
BP,ioos:station:wmo:42880:1,2022-07-02T23:36:00Z,0.0000,0.0000,8.2,29.6,11111222
BP,ioos:station:wmo:42880:1,2022-07-02T23:46:00Z,0.0000,0.0000,8.2,29.6,11111222
BP,ioos:station:wmo:42880:1,2022-07-02T23:56:00Z,0.0000,0.0000,8.2,29.6,11111222
BP,ioos:station:wmo:42880:1,2022-07-03T00:06:00Z,0.0000,0.0000,8.2,29.7,11111222
BP,ioos:station:wmo:42880:1,2022-07-03T00:16:00Z,0.0000,0.0000,8.2,29.8,11111222
BP,ioos:station:wmo:42880:1,2022-07-03T00:26:00Z,0.0000,0.0000,8.2,29.8,11111222
BP,ioos:station:wmo:42880:1,2022-07-03T00:36:00Z,0.0000,0.0000,8.2,29.7,11111222
BP,ioos:station:wmo:42880:1,2022-07-03T00:46:00Z,0.0000,0.0000,8.2,29.9,11111222
BP,ioos:station:wmo:42880:1,2022-07-03T00:56:00Z,0.0000,0.0000,8.2,29.6,11111222
BP,ioos:station:wmo:42880:1,2022-07-03T01:06:00Z,0.0000,0.0000,8.2,29.8,11111222
BP,ioos:station:wmo:42880:1,2022-07-03T01:16:00Z,0.0000,0.0000,8.3,30.3,11111222
BP,ioos:station:wmo:42880:1,2022-07-03T01:26:00Z,0.0000,0.0000,8.3,30.3,11111222
BP,ioos:station:wmo:42880:1,2022-07-03T01:36:00Z,0.0000,0.0000,8.2,30.2,11111222